Weather History for KCSM - October, 2014

Change the Weather History Date:

Thursday, October 9, 2014

  Actual Average Record
Temperature  
Mean Temperature 78 °F -  
Max Temperature 88 °F 73 °F 88 °F (2014)
Min Temperature 69 °F 51 °F 24 °F (2000)
Cooling Degree Days 13    
Growing Degree Days 28 (Base 50)    
Moisture  
Dew Point 58 °F    
Average Humidity 52    
Maximum Humidity 68    
Minimum Humidity 37    
Precipitation  
Precipitation 0.00 in - - ()
Sea Level Pressure  
Sea Level Pressure 29.84 in    
Wind  
Wind Speed 16 mph (SSE)    
Max Wind Speed 20 mph    
Max Gust Speed 24 mph    
Visibility 10 miles    
Events Rain    
Averages and records for this station are not official NWS values.
T = Trace of Precipitation, MM = Missing Value Source: NWS Daily Summary

Daily Weather History Graph

Daily Weather History Graph

Search for Another Location

Airport or City:

Trip Planner

Search our weather history database for the weather conditions in past years. The results will help you decide how hot, cold, wet, or windy it might be!

Date:

Astronomy

Oct. 09, 2014 Rise Set
Actual Time 7:38 AM CDT 7:09 PM CDT
Civil Twilight 7:12 AM CDT 7:34 PM CDT
Nautical Twilight 6:43 AM CDT 8:04 PM CDT
Astronomical Twilight 6:13 AM CDT 8:33 PM CDT
Moon 8:10 PM CDT (10/9) 8:51 AM CDT (10/9)
Length of Visible Light 12h 22m
Length of Day
11h 31m
Full, 98% of the Moon is Illuminated
Oct 9
Full
Oct 15
Last Quarter
Oct 23
New
Oct 30
First Quarter
Nov 6
Full

Hourly Weather History & Observations

Time (CDT) Temp. Heat Index Dew Point Humidity Pressure Visibility Wind Dir Wind Speed Gust Speed Precip Events Conditions
12:53 AM 75.0 °F - 61.0 °F 62% 29.86 in 10.0 mi SSE 18.4 mph - N/A   Clear
1:53 AM 75.0 °F - 60.1 °F 60% 29.85 in 10.0 mi South 19.6 mph - N/A   Clear
2:53 AM 73.9 °F - 60.1 °F 62% 29.85 in 10.0 mi South 16.1 mph - N/A   Clear
3:53 AM 73.0 °F - 57.9 °F 59% 29.83 in 10.0 mi South 17.3 mph - N/A   Clear
4:53 AM 72.0 °F - 57.9 °F 61% 29.84 in 10.0 mi South 17.3 mph - N/A   Clear
5:53 AM 71.1 °F - 57.0 °F 61% 29.85 in 10.0 mi South 16.1 mph - N/A   Clear
6:53 AM 70.0 °F - 57.0 °F 63% 29.86 in 10.0 mi South 15.0 mph - N/A   Scattered Clouds
7:53 AM 69.1 °F - 57.9 °F 68% 29.87 in 10.0 mi South 15.0 mph - N/A   Scattered Clouds
8:53 AM 71.1 °F - 59.0 °F 66% 29.89 in 10.0 mi South 13.8 mph - N/A   Mostly Cloudy
9:53 AM 73.0 °F - 59.0 °F 61% 29.91 in 10.0 mi South 15.0 mph - N/A   Overcast
10:53 AM 77.0 °F - 60.1 °F 56% 29.90 in 10.0 mi SSW 18.4 mph - N/A   Mostly Cloudy
11:53 AM 79.0 °F - 60.1 °F 52% 29.89 in 10.0 mi South 17.3 mph - N/A   Overcast
12:53 PM 82.0 °F 82.4 °F 60.1 °F 47% 29.88 in 10.0 mi South 13.8 mph 24.2 mph N/A   Partly Cloudy
1:53 PM 82.9 °F 84.0 °F 63.0 °F 51% 29.86 in 10.0 mi South 18.4 mph 23.0 mph 0.00 in Rain Light Rain
2:53 PM 86.0 °F 86.1 °F 61.0 °F 43% 29.82 in 10.0 mi South 12.7 mph 20.7 mph 0.00 in   Partly Cloudy
3:53 PM 87.1 °F 86.5 °F 59.0 °F 39% 29.81 in 10.0 mi South 11.5 mph - N/A   Scattered Clouds
4:53 PM 87.1 °F 86.1 °F 57.9 °F 37% 29.79 in 10.0 mi SSE 13.8 mph - N/A   Partly Cloudy
5:53 PM 86.0 °F 84.9 °F 57.0 °F 37% 29.78 in 10.0 mi South 12.7 mph - N/A   Partly Cloudy
6:53 PM 84.0 °F 83.3 °F 57.0 °F 40% 29.78 in 10.0 mi SSE 12.7 mph - N/A   Clear
7:53 PM 80.1 °F 80.4 °F 57.0 °F 45% 29.79 in 10.0 mi SSE 10.4 mph - N/A   Clear
8:53 PM 80.1 °F 80.2 °F 55.9 °F 43% 29.81 in 10.0 mi SSE 9.2 mph - N/A   Overcast
9:53 PM 77.0 °F - 55.9 °F 48% 29.81 in 10.0 mi ESE 9.2 mph - N/A   Scattered Clouds
10:53 PM 77.0 °F - 55.9 °F 48% 29.80 in 10.0 mi ESE 9.2 mph - N/A   Mostly Cloudy
11:53 PM 77.0 °F - 55.9 °F 48% 29.77 in 10.0 mi SE 13.8 mph - N/A   Mostly Cloudy